Location: Unspecified
(0.0000°N, 0.0000°E)
Time: 00:28:26
(UTC+00:00)

N. Korean satellite - Pass Details

Date: 20 January 2021
Orbit: 453 x 502 km, 97.2° (Epoch: 16 January)

Event Time Altitude Azimuth Distance (km) Brightness Sun altitude
Rises 05:35:35 0° 349° (N) 2,456 9.8 -8.3°
Reaches altitude 10° 05:37:55 10° 334° (NNW) 1,583 8.7 -7.8°
Maximum altitude 05:40:36 22° 281° (W) 1,034 7.6 -7.1°
Drops below altitude 10° 05:43:18 10° 228° (SW) 1,585 8.9 -6.5°
Sets 05:45:39 0° 212° (SSW) 2,461 10.0 -6.0°
